Weather History for Alma, GA

Change the Weather History Date:

Monday, May 7, 2012

  Actual Average Record
Temperature  
Mean Temperature 77 °F 71 °F  
Max Temperature 87 °F 84 °F 93 °F (1950)
Min Temperature 67 °F 59 °F 41 °F (1954)
Degree Days  
Heating Degree Days 0 0  
Month to date heating degree days 0 3  
Since 1 July heating degree days 1211 1656  
Cooling Degree Days 12 7  
Month to date cooling degree days 97 42  
Year to date cooling degree days 428 196  
Growing Degree Days 25 (Base 50)    
Moisture  
Dew Point 66 °F    
Average Humidity 74    
Maximum Humidity 97    
Minimum Humidity 51    
Precipitation  
Precipitation 0.31 in 0.07 in 1.29 in (1979)
Month to date precipitation 0.34 0.48  
Year to date precipitation 11.43 16.10  
Snow  
Snow 0.00 in 0.00 in 0.00 in ()
Month to date snowfall 0.0 0.0  
Since 1 July snowfall 0.0 0.1  
Snow Depth 0.00 in    
Sea Level Pressure  
Sea Level Pressure 29.94 in    
Wind  
Wind Speed 4 mph (ESE)    
Max Wind Speed 14 mph    
Max Gust Speed 21 mph    
Visibility 7 miles    
Events Rain , Thunderstorm    
T = Trace of Precipitation, MM = Missing Value Source: NWS Daily Summary

Daily Weather History Graph

Daily Weather History Graph

Search for Another Location

Airport:

Trip Planner

Search our weather history database for the weather conditions in past years. The results will help you decide how hot, cold, wet, or windy it might be!

Date:

Astronomy

May. 07, 2012 Rise Set
Actual Time 6:39 AM EDT 8:14 PM EDT
Civil Twilight 6:12 AM EDT 8:40 PM EDT
Nautical Twilight 5:41 AM EDT 9:12 PM EDT
Astronomical Twilight 5:08 AM EDT 9:45 PM EDT
Moon 10:19 PM EDT (5/7) 7:48 AM EDT (5/7)
Length of Visible Light 14h 27m
Length of Day
13h 35m
Waning Gibbous, 97% of the Moon is Illuminated
May 7
Waning Gibbous
May 12
Last Quarter
May 20
New
May 28
First Quarter
Jun 4
Full

Hourly Weather History & Observations

Time (EDT) Temp. Heat Index Dew Point Humidity Pressure Visibility Wind Dir Wind Speed Gust Speed Precip Events Conditions
12:53 AM 70.0 °F - 66.0 °F 87% 29.95 in 9.0 mi Calm Calm - N/A   Clear
1:53 AM 70.0 °F - 66.0 °F 87% 29.94 in 8.0 mi Calm Calm - N/A   Clear
2:53 AM 68.0 °F - 64.9 °F 90% 29.93 in 4.0 mi Calm Calm - N/A   Partly Cloudy
3:53 AM 69.1 °F - 64.9 °F 87% 29.92 in 9.0 mi Calm Calm - N/A   Overcast
4:53 AM 69.1 °F - 64.9 °F 87% 29.91 in 8.0 mi Calm Calm - N/A   Overcast
5:53 AM 69.1 °F - 64.9 °F 87% 29.93 in 8.0 mi Calm Calm - N/A   Mostly Cloudy
6:53 AM 68.0 °F - 64.9 °F 90% 29.94 in 3.0 mi Calm Calm - N/A   Clear
7:15 AM 66.2 °F - 64.4 °F 94% 29.95 in 2.0 mi Calm Calm - N/A   Clear
7:43 AM 69.8 °F - 66.2 °F 88% 29.96 in 4.0 mi Calm Calm - N/A   Mostly Cloudy
7:53 AM 71.1 °F - 66.9 °F 87% 29.95 in 5.0 mi Calm Calm - N/A   Mostly Cloudy
8:53 AM 73.0 °F - 66.9 °F 81% 29.95 in 8.0 mi ESE 5.8 mph - N/A   Scattered Clouds
9:37 AM 75.2 °F - 68.0 °F 78% 29.97 in 10.0 mi ESE 8.1 mph - N/A   Mostly Cloudy
9:53 AM 75.9 °F - 66.9 °F 74% 29.96 in 10.0 mi ESE 5.8 mph - N/A   Overcast
10:53 AM 77.0 °F - 66.9 °F 71% 29.97 in 10.0 mi East 4.6 mph - N/A   Overcast
11:53 AM 81.0 °F 83.0 °F 66.0 °F 60% 29.96 in 10.0 mi Variable 3.5 mph - N/A   Mostly Cloudy
12:53 PM 81.0 °F 82.5 °F 64.0 °F 56% 29.95 in 10.0 mi ESE 4.6 mph - N/A   Overcast
1:53 PM 84.0 °F 85.8 °F 64.9 °F 53% 29.92 in 10.0 mi Calm Calm - N/A   Mostly Cloudy
2:53 PM 79.0 °F - 63.0 °F 58% 29.92 in 10.0 mi East 13.8 mph 19.6 mph N/A   Overcast
3:39 PM 77.0 °F - 68.0 °F 74% 29.91 in 10.0 mi ESE 10.4 mph 19.6 mph 0.03 in Thunderstorm Mostly Cloudy
3:53 PM 73.9 °F - 66.0 °F 76% 29.91 in 10.0 mi ESE 11.5 mph 19.6 mph 0.03 in Thunderstorm Partly Cloudy
4:27 PM 75.2 °F - 66.2 °F 73% 29.94 in 10.0 mi SSE 6.9 mph - N/A Thunderstorm Scattered Clouds
4:53 PM 72.0 °F - 64.9 °F 78% 29.95 in 10.0 mi West 11.5 mph - N/A Thunderstorm Thunderstorm
5:03 PM 71.6 °F - 64.4 °F 78% 29.94 in 10.0 mi Variable 5.8 mph 18.4 mph N/A Thunderstorm Thunderstorm
5:24 PM 69.8 °F - 64.4 °F 83% 29.96 in 2.5 mi NW 8.1 mph - 0.04 in Rain , Thunderstorm Heavy Thunderstorms and Rain
5:33 PM 69.8 °F - 66.2 °F 88% 29.95 in 0.8 mi West 6.9 mph - 0.13 in Rain , Thunderstorm Heavy Rain
5:45 PM 69.8 °F - 64.4 °F 83% 29.94 in 2.0 mi Variable 3.5 mph - 0.16 in Rain , Thunderstorm Light Thunderstorms and Rain
5:53 PM 69.1 °F - 64.9 °F 87% 29.94 in 4.0 mi ESE 4.6 mph - 0.17 in Rain , Thunderstorm Thunderstorms and Rain
6:39 PM 68.0 °F - 64.4 °F 88% 29.92 in 4.0 mi Calm Calm - 0.04 in Rain Light Rain
6:48 PM 68.0 °F - 64.4 °F 88% 29.93 in 6.0 mi East 4.6 mph - 0.04 in Rain , Thunderstorm Light Rain
6:53 PM 68.0 °F - 64.9 °F 90% 29.93 in 7.0 mi East 4.6 mph - 0.04 in Rain , Thunderstorm Light Rain
7:03 PM 68.0 °F - 64.4 °F 88% 29.93 in 3.0 mi East 5.8 mph - 0.03 in Rain Rain
7:53 PM 69.1 °F - 66.0 °F 90% 29.91 in 10.0 mi East 8.1 mph - 0.07 in Rain Light Rain
8:53 PM 69.1 °F - 66.0 °F 90% 29.92 in 10.0 mi East 4.6 mph - 0.00 in   Scattered Clouds
9:53 PM 70.0 °F - 66.9 °F 90% 29.94 in 7.0 mi East 3.5 mph - N/A   Mostly Cloudy
10:34 PM 71.6 °F - 66.2 °F 83% 29.95 in 7.0 mi Calm Calm - N/A   Mostly Cloudy
10:42 PM 69.8 °F - 66.2 °F 88% 29.95 in 6.0 mi Calm Calm - N/A   Mostly Cloudy
10:49 PM 69.8 °F - 68.0 °F 94% 29.95 in 6.0 mi Calm Calm - N/A   Mostly Cloudy
10:53 PM 70.0 °F - 68.0 °F 93% 29.94 in 6.0 mi Calm Calm - N/A   Overcast
11:35 PM 69.8 °F - 66.2 °F 88% 29.95 in 4.0 mi Calm Calm - N/A   Scattered Clouds
11:53 PM 69.1 °F - 66.9 °F 93% 29.95 in 4.0 mi Calm Calm - N/A   Partly Cloudy